map of VAA home
VAA - Airport
Location
City:  Vaasa, Pohjanmaa (Österbotten, Ostrobothnia), Finland
ICAO:EFVA
IATA:VAA

Details
Type:Airport (Aerodrome, Airfield)
Use:Public/Civil, International (customs port of entry)
Latitude:63°03'02"N (63.050650)
Longitude:21°45'44"E (21.762175)
Datum:WGS 1984
Elevation:19 ft (6 m)
Variation:8.26°E (WMM2015 magnetic declination)
0.17° annual change
Runways:1
Longest:8727 × 157 ft (2660 × 48 m), paved

Time
Time Zone:UTC+2 (DST+3)
Local Time:

Weather
METAR:EFVA 050420Z AUTO 34011KT 9999 FEW007/// SCT009/// OVC041/// 01/M01 Q0994 R16/29//95
TAF:EFVA 050230Z 0503/0603 30018G28KT 9999 BKN040
BECMG 0512/0514 36011KT PROB30 0512/0519 5000 -SN BKN012

Related Locations
Nearby:
Farthest:NZWD: 11166 mi / 17971 km
McMurdo Station [Williams Field], Ross Island, AQ

Find:

   beyond  
but within

Other Information
Maps:
NOTAMs:
Links:
Sources:

  
flag of Finland   

Sectional Chart

Flight Planning
at skyvector.com

Satellite Image

Google Maps Satellite view

 

Copyright © 2004-2016 Karl L. Swartz. All rights reserved.
The Great Circle Mapper name and logo are trademarks of the Great Circle Mapper.
All other trademarks mentioned herein belong to their respective owners.
Please see credits for attibutions and further copyright information.

  Follow gcmap on Facebook Follow gcmap on Twitter Follow gcmap on Google+ GCmap on LinkedIn

hCard Microformat

Geo Microformat